Wind_Speed
32 34 39 35 32 31 20 29 26 31 25 21 30 33 30 25 26 29 25 33 32 31 23 24 22 23 22 21 19 19 20 20 23 25 24 25 23 21 21 21 20 21 20 20
28 37 35 30 30 31 31 21 23 19 19 24 27 35 31 28 30 29 28 28 35 34 31 32 30 26 26 23 21 22 20 21 22 23 22 24 23 22 23 23 23 24 23 21
37 23 34 29 30 34 35 31 25 19 15 21 30 37 40 37 34 33 35 35 35 37 32 31 32 34 28 29 25 22 22 24 23 23 23 24 26 25 25 23 23 22 21 22
34 38 23 33 34 32 35 35 32 18 14 22 21 14 31 35 39 37 33 34 33 32 32 32 33 34 37 32 28 24 24 25 26 26 25 24 24 24 21 23 23 23 23 23
36 32 38 33 37 31 34 27 30 33 27 26 26 16 33 36 41 36 33 33 34 31 32 34 37 36 34 38 33 28 26 26 28 29 29 27 26 24 24 25 25 26 26 26
26 23 24 34 35 33 27 25 22 29 34 22 34 26 31 39 42 35 30 26 28 28 29 33 34 34 29 32 38 34 32 28 28 30 31 31 29 28 27 27 26 27 28 28
35 44 18 22 26 31 32 28 9 10 11 19 26 25 54 17 28 25 26 19 23 31 33 31 33 36 32 32 35 37 38 33 30 31 31 31 31 31 31 30 30 30 30 30
30 22 42 34 36 35 41 37 9 7 6 11 11 19 27 24 30 30 29 23 26 26 28 31 33 34 34 34 34 33 38 40 34 30 31 32 32 32 32 32 32 32 31 30
23 23 23 36 40 32 33 41 41 7 3 2 18 33 39 27 24 27 27 24 27 25 25 27 28 31 31 31 30 32 34 39 39 35 33 32 31 31 31 31 34 34 33 33
27 7 23 26 31 41 36 39 33 24 5 6 10 23 28 16 17 20 34 34 31 30 30 30 28 27 25 27 28 27 31 38 40 41 38 36 35 34 34 35 36 35 35 35
34 22 12 15 36 40 41 37 32 29 20 5 3 15 24 22 19 21 23 29 30 32 30 26 25 25 27 26 25 24 27 36 42 43 42 42 42 42 43 44 44 43 40 37
44 18 30 34 28 38 46 41 48 28 34 29 13 28 11 14 19 23 26 25 24 21 23 23 24 23 23 26 25 21 20 26 33 38 41 43 43 41 42 44 45 46 45 40
37 27 23 18 34 41 45 46 47 51 35 38 21 26 30 21 21 21 17 18 18 18 17 16 15 14 13 14 16 19 22 23 27 31 32 33 32 33 32 33 36 40 44 43
23 37 31 26 22 25 35 44 48 50 37 48 46 48 45 20 25 19 16 13 12 12 12 13 14 15 13 14 14 16 17 19 22 24 27 29 30 31 30 31 31 32 37 41
31 33 42 48 35 26 38 43 51 50 65 39 56 50 46 43 28 27 21 19 20 19 20 21 20 20 18 17 19 21 22 22 22 23 24 25 25 27 29 31 32 33 35 37
25 36 31 44 49 41 35 33 39 57 55 53 59 49 51 50 35 31 31 29 26 26 29 28 26 25 24 24 25 27 29 29 29 29 28 26 25 25 24 24 23 24 26 29
25 26 34 38 37 44 36 57 50 46 65 68 62 62 52 48 48 54 50 45 44 43 40 34 32 33 34 35 33 31 32 34 37 35 33 32 30 29 28 26 25 24 24 25
40 36 31 28 24 19 57 50 54 58 58 66 68 63 61 61 49 41 40 43 45 45 44 40 36 38 37 31 28 28 28 28 28 30 34 37 37 36 35 34 32 31 30 30
41 39 26 15 25 19 36 50 49 52 59 59 63 56 64 49 45 50 42 41 45 45 42 39 42 35 33 30 28 24 23 22 22 22 23 24 26 27 28 28 29 29 29 28
35 37 38 33 20 9 48 40 35 28 53 49 54 56 52 62 50 57 47 45 45 46 45 39 34 34 32 28 25 22 19 16 15 14 15 17 20 23 25 26 26 27 26 27
24 37 45 41 29 26 31 21 26 34 45 24 42 45 48 58 55 52 51 45 44 42 39 37 36 32 27 25 22 19 16 15 13 13 13 14 16 19 20 21 23 23 23 24
33 21 29 35 24 23 27 27 39 41 27 26 14 14 25 46 46 50 45 43 42 44 44 36 32 28 22 19 16 14 14 13 12 11 11 12 12 13 14 16 18 20 22 24
24 38 32 38 42 10 18 28 36 38 26 24 25 32 34 27 30 45 47 43 42 37 31 29 26 22 21 19 16 15 15 14 13 13 13 14 15 17 19 20 23 25 26 26
39 39 33 30 31 36 12 23 29 29 29 35 32 28 27 24 25 34 37 37 35 31 28 26 24 23 21 19 17 15 14 13 13 14 17 20 23 25 28 30 30 30 31 32
27 31 26 33 23 29 34 23 27 30 26 23 22 19 17 17 20 23 25 27 29 28 26 24 24 23 22 20 17 15 15 18 21 23 24 25 25 26 28 30 31 31 30 30
36 33 28 25 26 29 30 30 30 23 20 14 14 11 14 15 15 18 21 23 24 24 24 25 25 24 21 18 17 18 19 21 22 24 26 28 29 28 29 27 26 26 26 27
Wind_Direction
216 214 219 223 224 225 237 240 242 242 238 249 244 253 253 252 251 247 253 244 244 246 245 243 245 249 247 250 248 247 239 241 241 239 236 241 240 241 247 247 248 252 252 254
212 226 230 228 224 227 231 231 236 242 239 241 247 252 255 250 246 242 244 248 250 251 252 252 248 244 248 247 246 248 250 246 245 244 242 240 245 247 248 243 239 240 248 258
218 227 227 232 227 226 229 228 229 232 237 249 250 258 254 251 247 247 247 247 247 250 251 255 252 249 243 246 245 248 252 251 248 249 247 244 244 243 243 247 248 253 259 265
227 224 227 228 232 227 233 231 229 228 252 248 243 269 259 258 256 254 248 248 247 246 252 258 256 252 250 243 246 245 244 248 249 247 248 248 249 248 250 252 254 255 257 260
222 224 223 229 234 228 233 237 235 231 245 257 244 255 267 262 254 248 250 253 249 250 256 256 253 254 255 246 244 245 246 245 248 248 248 251 252 252 250 252 255 260 262 265
200 216 219 235 241 233 240 232 232 233 236 253 244 239 265 256 256 256 255 257 251 250 255 251 254 252 255 245 243 243 243 243 247 248 249 249 252 254 253 254 257 261 266 266
233 237 232 239 230 224 222 214 211 219 218 240 242 239 248 250 250 259 252 253 255 253 249 246 250 250 250 246 245 244 241 243 244 247 251 253 253 255 258 257 258 258 261 266
222 231 232 223 222 218 217 202 189 201 198 247 200 236 250 262 260 258 260 249 253 255 243 243 247 251 252 251 248 253 244 239 241 245 248 252 254 254 256 258 261 264 266 270
215 228 230 235 222 213 209 208 213 268 257 248 223 247 257 253 254 260 260 250 247 244 252 252 249 243 246 249 250 255 245 232 237 243 248 249 253 257 261 263 262 262 264 265
220 236 220 231 224 225 221 218 208 223 192 231 236 246 241 254 269 260 250 250 245 245 254 259 252 243 242 252 257 258 241 229 236 241 246 252 254 256 260 261 262 265 267 267
217 225 247 218 208 210 213 216 211 220 234 222 257 251 260 265 266 257 247 234 239 244 245 242 247 250 243 251 257 259 248 233 237 244 249 254 258 262 264 264 264 266 266 268
225 237 240 242 239 226 217 215 212 211 219 226 244 248 266 285 245 224 236 222 228 232 232 240 242 249 248 249 252 257 253 246 247 251 255 259 261 264 265 265 265 263 259 262
221 227 235 245 242 240 237 215 216 216 227 228 227 243 256 252 235 230 236 229 226 226 223 223 232 240 246 250 255 255 252 248 247 249 253 257 263 267 270 269 267 261 257 257
228 226 223 226 230 228 219 227 217 221 225 235 231 243 233 233 230 222 219 248 244 243 245 234 235 230 238 245 243 246 250 249 250 253 255 259 261 263 265 267 270 268 258 255
229 232 231 235 242 247 239 237 221 217 229 224 237 237 240 224 224 228 234 250 252 261 267 258 243 239 241 243 248 251 254 256 260 261 262 266 270 272 272 271 269 266 263 263
264 245 232 243 241 231 263 249 222 222 227 227 238 245 247 240 222 218 236 254 262 269 269 259 243 241 244 254 262 264 263 264 267 266 265 267 269 272 276 277 277 275 273 272
253 256 248 257 253 248 248 250 245 238 232 233 233 250 246 246 237 235 243 247 251 257 261 249 252 261 270 279 277 272 267 263 262 265 267 267 269 272 274 275 278 283 286 287
249 244 270 279 271 221 247 249 249 244 250 239 238 252 247 246 244 231 237 245 251 255 255 259 266 275 280 277 274 271 271 271 269 266 265 265 267 271 277 277 279 285 288 286
244 248 243 257 261 238 244 246 236 228 244 235 236 250 248 241 248 253 247 244 245 244 247 256 273 274 278 279 280 279 276 275 275 274 272 268 266 267 267 269 272 272 273 277
243 248 247 244 247 235 238 241 243 228 238 240 238 246 243 241 241 247 242 241 239 241 249 253 261 265 266 269 273 276 276 275 276 274 269 262 259 261 265 269 272 274 276 277
222 237 217 226 238 241 231 224 195 178 244 264 244 246 245 242 245 248 245 246 240 240 244 257 261 259 260 263 266 269 274 279 281 278 273 271 268 264 263 266 269 271 273 275
228 223 212 207 206 241 225 209 206 233 239 236 232 244 243 248 250 246 240 237 237 250 258 253 251 247 248 256 263 267 272 278 282 285 283 279 276 273 274 277 280 284 285 285
251 244 216 204 214 221 200 216 221 232 236 256 259 258 258 257 253 238 242 250 251 244 240 237 228 232 244 249 256 262 267 268 266 267 271 274 277 280 282 284 285 285 284 283
268 219 215 208 212 215 200 207 219 229 245 245 253 260 263 247 246 228 228 231 232 227 221 218 224 229 230 237 243 246 250 255 264 272 278 283 285 284 285 287 287 286 285 283
246 216 213 209 214 216 220 210 217 222 233 250 261 251 218 201 201 201 206 206 204 207 210 214 216 218 223 224 229 241 258 271 276 279 282 284 286 288 289 289 291 291 290 289
232 235 210 199 192 195 200 206 215 217 209 204 194 187 184 170 180 185 190 198 204 211 216 213 212 212 217 232 249 264 274 282 282 283 286 289 293 292 291 290 289 289 290 291
Height
3119 3123 3118 3125 3132 3137 3139 3140 3142 3143 3149 3149 3148 3145 3149 3153 3153 3153 3154 3155 3156 3158 3162 3163 3164 3165 3165 3167 3169 3170 3171 3173 3175 3177 3179 3182 3184 3185 3186 3189 3190 3191 3192 3193
3117 3111 3118 3126 3129 3132 3136 3137 3138 3141 3144 3145 3144 3139 3142 3144 3146 3147 3149 3150 3151 3152 3154 3156 3158 3159 3160 3163 3165 3166 3168 3169 3170 3172 3175 3177 3179 3181 3182 3183 3184 3186 3187 3189
3107 3109 3115 3122 3124 3128 3131 3133 3138 3141 3141 3140 3141 3133 3132 3134 3138 3140 3141 3142 3144 3145 3146 3149 3150 3153 3156 3157 3159 3163 3165 3166 3166 3168 3170 3172 3173 3175 3175 3178 3180 3182 3184 3184
3105 3109 3113 3116 3117 3124 3125 3130 3136 3139 3139 3136 3138 3125 3122 3126 3127 3130 3133 3135 3136 3139 3141 3142 3143 3145 3147 3151 3155 3156 3159 3160 3162 3162 3163 3165 3168 3169 3172 3174 3176 3177 3178 3179
3094 3100 3105 3108 3109 3119 3120 3127 3131 3135 3135 3134 3132 3130 3110 3118 3118 3120 3124 3128 3129 3133 3134 3134 3135 3136 3139 3143 3148 3151 3152 3154 3156 3157 3158 3160 3162 3165 3167 3168 3169 3171 3173 3173
3090 3097 3101 3101 3108 3114 3120 3124 3126 3129 3132 3126 3121 3125 3100 3107 3110 3114 3118 3120 3122 3125 3125 3126 3128 3129 3130 3133 3138 3142 3144 3147 3150 3151 3152 3153 3156 3159 3160 3162 3163 3164 3166 3166
3087 3088 3093 3098 3103 3109 3112 3119 3121 3124 3123 3108 3113 3117 3091 3101 3104 3108 3110 3114 3115 3115 3116 3118 3119 3121 3123 3125 3129 3133 3136 3139 3143 3145 3147 3148 3149 3151 3153 3155 3156 3156 3158 3159
3080 3084 3084 3089 3093 3096 3101 3110 3109 3111 3109 3102 3106 3097 3086 3093 3098 3101 3104 3107 3108 3106 3108 3110 3112 3113 3115 3117 3120 3123 3126 3131 3135 3138 3140 3142 3142 3143 3145 3146 3148 3149 3151 3152
3074 3075 3077 3079 3088 3094 3097 3098 3101 3104 3102 3100 3095 3088 3088 3091 3093 3096 3096 3098 3099 3102 3102 3103 3105 3106 3108 3109 3112 3114 3116 3122 3126 3129 3132 3134 3136 3137 3139 3141 3140 3141 3142 3143
3071 3071 3073 3078 3084 3087 3086 3094 3100 3101 3100 3099 3084 3080 3077 3083 3086 3087 3087 3091 3093 3094 3096 3097 3097 3099 3101 3103 3104 3106 3107 3112 3117 3121 3123 3126 3128 3130 3131 3131 3131 3133 3134 3135
3067 3070 3072 3074 3070 3073 3080 3083 3086 3091 3090 3084 3084 3072 3074 3078 3081 3083 3083 3083 3085 3087 3088 3090 3092 3094 3095 3097 3097 3099 3101 3103 3108 3112 3116 3117 3119 3121 3122 3122 3123 3124 3125 3126
3057 3064 3064 3063 3067 3069 3073 3074 3079 3082 3077 3076 3075 3065 3071 3074 3075 3076 3077 3078 3080 3081 3083 3085 3086 3088 3088 3089 3092 3093 3095 3099 3102 3105 3107 3108 3109 3110 3110 3110 3111 3112 3113 3115
3050 3053 3058 3059 3063 3061 3059 3060 3065 3071 3075 3070 3072 3059 3068 3073 3072 3073 3074 3076 3077 3079 3079 3081 3082 3082 3084 3085 3087 3089 3091 3093 3095 3097 3098 3100 3100 3100 3100 3099 3099 3099 3100 3102
3049 3047 3045 3044 3045 3050 3051 3053 3060 3067 3069 3059 3059 3055 3064 3069 3070 3072 3073 3074 3074 3076 3077 3078 3079 3079 3080 3082 3083 3085 3086 3087 3088 3089 3090 3091 3091 3091 3090 3090 3090 3090 3090 3090
3042 3036 3039 3038 3043 3043 3045 3046 3051 3053 3048 3060 3046 3052 3056 3062 3066 3068 3069 3069 3070 3071 3073 3074 3074 3075 3076 3077 3079 3081 3081 3082 3083 3084 3084 3084 3083 3083 3083 3083 3083 3083 3083 3083
3034 3032 3030 3030 3035 3036 3036 3041 3043 3045 3042 3051 3044 3043 3047 3058 3061 3061 3061 3062 3064 3066 3068 3069 3069 3069 3070 3072 3074 3075 3075 3076 3077 3077 3076 3076 3076 3076 3076 3075 3074 3074 3073 3073
3028 3029 3029 3018 3027 3033 3029 3023 3028 3032 3034 3035 3035 3025 3041 3046 3049 3054 3057 3059 3061 3062 3061 3061 3061 3062 3064 3065 3066 3066 3066 3066 3067 3068 3069 3069 3069 3069 3069 3069 3069 3068 3068 3067
3019 3024 3023 3021 3024 3012 2997 3014 3015 3019 3017 3025 3028 3026 3032 3037 3043 3048 3052 3053 3053 3055 3054 3054 3054 3055 3056 3057 3057 3057 3057 3056 3057 3058 3059 3060 3061 3061 3061 3061 3061 3060 3060 3059
3009 3014 3018 3018 3012 3001 2993 2990 2997 3005 2995 3006 3015 3016 3023 3030 3035 3038 3041 3044 3044 3045 3048 3049 3048 3049 3048 3047 3047 3048 3048 3048 3048 3049 3049 3050 3050 3051 3052 3052 3052 3051 3050 3049
2998 3002 3005 3011 3005 2991 2976 2986 2996 3005 3000 2998 3003 3005 3012 3020 3025 3016 3028 3032 3036 3040 3043 3045 3045 3044 3041 3040 3040 3041 3041 3041 3041 3041 3042 3042 3043 3043 3044 3044 3044 3044 3043 3042
2983 2989 2987 2989 2996 2984 2980 2984 2991 3001 2982 2987 2991 2997 3005 3003 2998 3015 3020 3024 3030 3034 3036 3037 3037 3036 3035 3035 3035 3035 3036 3036 3037 3037 3037 3037 3037 3037 3038 3037 3037 3037 3036 3035
2969 2980 2976 2980 2981 2977 2972 2979 2976 2977 2978 2984 2989 2992 2990 2990 2999 3002 3009 3015 3020 3025 3026 3028 3029 3030 3029 3030 3030 3030 3032 3032 3032 3032 3032 3032 3032 3032 3032 3032 3030 3030 3029 3027
2962 2964 2965 2965 2959 2966 2966 2970 2974 2974 2976 2980 2983 2984 2983 2984 2987 2992 2998 3005 3009 3014 3017 3019 3021 3023 3024 3024 3024 3025 3027 3028 3028 3028 3027 3027 3027 3027 3027 3026 3024 3022 3021 3019
2949 2952 2950 2954 2954 2960 2961 2964 2965 2969 2971 2974 2975 2976 2975 2976 2978 2983 2989 2995 3000 3007 3011 3013 3015 3016 3018 3020 3021 3022 3024 3024 3023 3023 3023 3022 3022 3021 3020 3018 3016 3015 3014 3012
2947 2941 2940 2941 2945 2950 2954 2958 2963 2964 2966 2969 2970 2971 2971 2971 2974 2979 2985 2990 2996 3001 3005 3007 3010 3011 3014 3016 3017 3017 3018 3017 3017 3016 3016 3015 3015 3013 3012 3011 3009 3008 3007 3005
2936 2937 2936 2935 2938 2943 2948 2954 2957 2958 2962 2965 2967 2971 2971 2973 2976 2979 2984 2989 2993 2997 3000 3002 3005 3007 3010 3011 3011 3010 3011 3011 3011 3011 3010 3010 3008 3006 3005 3003 3002 3000 2998 2997